Location: Chiroubles
(46.1812°N, 4.6660°E)
Time: 15:17:34
(UTC+00:00)

Transit 4A - Pass Details

Date: 04 December 2020
Orbit: 864 x 980 km, 66.8° (Epoch: 26 January)

Event Time Altitude Azimuth Distance (km) Brightness Sun altitude
Rises 15:50:13 0° 322° (NW) 3,677 11.1 0.0°
Reaches altitude 10° 15:52:55 10° 316° (NW) 2,716 10.5 -0.4°
Maximum altitude 15:58:50 43° 247° (WSW) 1,317 9.6 -1.2°
Drops below altitude 10° 16:04:35 10° 178° (S) 2,633 10.7 -2.1°
Sets 16:07:11 0° 172° (S) 3,554 11.3 -2.5°
